| time (UTC) | temp F | wind direction | speed knots | gust knots | rain 1hr in | rain 24hr in | rain mn in | humidity % | barometer mb |
| 20260507224104 | 0 | 355 | 3.5 | 7.8 | 0.00 | 0.00 | 0.00 | 86 | 1013.7 |
| 20260507223602 | 0 | 190 | 0.9 | 6.1 | 0.00 | 0.00 | 0.00 | 86 | 1013.7 |
| 20260507223103 | 0 | 0 | 3.5 | 7.0 | 0.00 | 0.00 | 0.00 | 86 | 1013.7 |
| 20260507222602 | 0 | 354 | 5.2 | 6.1 | 0.00 | 0.00 | 0.00 | 86 | 1013.6 |
| 20260507222103 | 0 | 349 | 5.2 | 7.8 | 0.00 | 0.00 | 0.00 | 86 | 1013.7 |
| 20260507221602 | 0 | 359 | 4.3 | 7.8 | 0.00 | 0.00 | 0.00 | 86 | 1013.7 |
| 20260507221103 | 0 | 67 | 3.5 | 6.1 | 0.00 | 0.00 | 0.00 | 86 | 1013.6 |
| 20260507220602 | 0 | 3 | 1.7 | 5.2 | 0.00 | 0.00 | 0.00 | 86 | 1013.7 |
| 20260507220104 | 0 | 2 | 2.6 | 4.3 | 0.00 | 0.00 | 0.00 | 86 | 1013.5 |
| 20260507215103 | 0 | 356 | 1.7 | 2.6 | 0.00 | 0.00 | 0.00 | 87 | 1013.7 |
| 20260507214604 | 0 | 357 | 3.5 | 4.3 | 0.00 | 0.00 | 0.00 | 87 | 1013.7 |
| 20260507214102 | 0 | 48 | 0.0 | 6.1 | 0.00 | 0.00 | 0.00 | 87 | 1013.6 |
| 20260507213604 | 0 | 322 | 3.5 | 3.5 | 0.00 | 0.00 | 0.00 | 87 | 1013.5 |
| 20260507213102 | 0 | 337 | 1.7 | 4.3 | 0.00 | 0.00 | 0.00 | 87 | 1013.3 |
| 20260507212602 | 0 | 342 | 0.0 | 3.5 | 0.00 | 0.00 | 0.00 | 87 | 1013.5 |
| 20260507212103 | 0 | 31 | 0.0 | 5.2 | 0.00 | 0.00 | 0.00 | 87 | 1013.5 |
| 20260507211603 | 0 | 0 | 0.0 | 4.3 | 0.00 | 0.00 | 0.00 | 87 | 1013.7 |
| 20260507211103 | 0 | 352 | 1.7 | 6.1 | 0.00 | 0.00 | 0.00 | 87 | 1013.6 |
| 20260507210604 | 0 | 350 | 0.0 | 4.3 | 0.00 | 0.00 | 0.00 | 87 | 1013.2 |
| 20260507205602 | 0 | 0 | 2.6 | 6.1 | 0.00 | 0.00 | 0.00 | 87 | 1013.3 |
| 20260507205102 | 0 | 359 | 5.2 | 5.2 | 0.00 | 0.00 | 0.00 | 87 | 1013.5 |
| 20260507204603 | 0 | 307 | 1.7 | 5.2 | 0.00 | 0.00 | 0.00 | 86 | 1013.3 |
| 20260507204104 | 0 | 350 | 3.5 | 5.2 | 0.00 | 0.00 | 0.00 | 86 | 1013.5 |
| 20260507203603 | 0 | 317 | 3.5 | 3.5 | 0.00 | 0.00 | 0.00 | 86 | 1013.5 |
| 20260507203103 | 0 | 0 | 0.0 | 3.5 | 0.00 | 0.00 | 0.00 | 86 | 1013.6 |
| 20260507202602 | 0 | 45 | 0.0 | 4.3 | 0.00 | 0.00 | 0.00 | 86 | 1013.5 |
| 20260507202103 | 0 | 340 | 2.6 | 3.5 | 0.00 | 0.00 | 0.00 | 86 | 1013.2 |
| 20260507201603 | 0 | 7 | 0.9 | 4.3 | 0.00 | 0.00 | 0.00 | 86 | 1013.2 |
| 20260507201103 | 0 | 10 | 0.9 | 5.2 | 0.00 | 0.00 | 0.00 | 86 | 1013.1 |
| 20260507195602 | 0 | 4 | 0.9 | 7.0 | 0.00 | 0.00 | 0.00 | 86 | 1012.8 |
| 20260507194603 | 0 | 349 | 1.7 | 3.5 | 0.00 | 0.00 | 0.00 | 85 | 1012.8 |
| 20260507194103 | 0 | 29 | 0.0 | 3.5 | 0.00 | 0.00 | 0.00 | 85 | 1013.0 |
| 20260507193602 | 0 | 0 | 0.9 | 3.5 | 0.00 | 0.00 | 0.00 | 85 | 1012.8 |
| 20260507193102 | 0 | 7 | 1.7 | 3.5 | 0.00 | 0.00 | 0.00 | 85 | 1013.0 |
| 20260507192602 | 0 | 313 | 2.6 | 4.3 | 0.00 | 0.00 | 0.00 | 85 | 1013.1 |
| 20260507192103 | 0 | 0 | 2.6 | 6.1 | 0.00 | 0.00 | 0.00 | 84 | 1013.0 |
| 20260507191603 | 0 | 55 | 1.7 | 5.2 | 0.00 | 0.00 | 0.00 | 84 | 1012.7 |
| 20260507191102 | 0 | 288 | 2.6 | 3.5 | 0.00 | 0.00 | 0.00 | 84 | 1012.7 |
| 20260507190603 | 0 | 353 | 4.3 | 5.2 | 0.00 | 0.00 | 0.00 | 83 | 1012.7 |
| 20260507185603 | 0 | 346 | 4.3 | 4.3 | 0.00 | 0.00 | 0.00 | 83 | 1012.6 |
| 20260507185103 | 0 | 353 | 5.2 | 5.2 | 0.00 | 0.00 | 0.00 | 83 | 1012.7 |
| 20260507184603 | 0 | 24 | 2.6 | 7.0 | 0.00 | 0.00 | 0.00 | 83 | 1012.7 |
| 20260507184102 | 0 | 0 | 1.7 | 5.2 | 0.00 | 0.00 | 0.00 | 83 | 1012.6 |
| 20260507183604 | 0 | 343 | 1.7 | 4.3 | 0.00 | 0.00 | 0.00 | 82 | 1012.8 |
| 20260507183103 | 0 | 325 | 0.9 | 1.7 | 0.00 | 0.00 | 0.00 | 82 | 1012.7 |
| 20260507182602 | 0 | 286 | 0.0 | 0.9 | 0.00 | 0.00 | 0.00 | 82 | 1012.7 |
| 20260507182102 | 0 | 270 | 0.0 | 0.9 | 0.00 | 0.00 | 0.00 | 81 | 1012.7 |
| 20260507181603 | 0 | 180 | 0.0 | 1.7 | 0.00 | 0.00 | 0.00 | 80 | 1012.8 |
| 20260507180603 | 0 | 90 | 0.0 | 0.9 | 0.00 | 0.00 | 0.00 | 78 | 1012.7 |
| 20260507175603 | 0 | 162 | 1.7 | 1.7 | 0.00 | 0.00 | 0.00 | 78 | 1012.8 |
| 20260507175103 | 0 | 270 | 0.0 | 0.0 | 0.00 | 0.00 | 0.00 | 78 | 1012.7 |
| 20260507174603 | 0 | 279 | 0.0 | 1.7 | 0.00 | 0.00 | 0.00 | 77 | 1012.7 |
| 20260507174102 | 0 | 300 | 0.9 | 1.7 | 0.00 | 0.00 | 0.00 | 76 | 1012.8 |
| 20260507173603 | 0 | 194 | 1.7 | 3.5 | 0.00 | 0.00 | 0.00 | 75 | 1012.7 |
| 20260507173102 | 0 | 180 | 0.9 | 2.6 | 0.00 | 0.00 | 0.00 | 75 | 1012.7 |
| 20260507172602 | 0 | 203 | 0.9 | 2.6 | 0.00 | 0.00 | 0.00 | 74 | 1012.7 |
| 20260507172104 | 0 | 248 | 2.6 | 2.6 | 0.00 | 0.00 | 0.00 | 72 | 1012.7 |
| 20260507171604 | 0 | 251 | 1.7 | 3.5 | 0.00 | 0.00 | 0.00 | 68 | 1012.6 |
| 20260507171103 | 0 | 152 | 1.7 | 1.7 | 0.00 | 0.00 | 0.00 | 66 | 1012.6 |
| 20260507170602 | 0 | 212 | 4.3 | 4.3 | 0.00 | 0.00 | 0.00 | 66 | 1012.7 |
| 20260507165603 | 0 | 225 | 1.7 | 4.3 | 0.00 | 0.00 | 0.00 | 68 | 1012.7 |
| 20260507165102 | 0 | 219 | 1.7 | 3.5 | 0.00 | 0.00 | 0.00 | 69 | 1012.5 |
| 20260507164602 | 0 | 162 | 1.7 | 5.2 | 0.00 | 0.00 | 0.00 | 70 | 1012.7 |
| 20260507164104 | 0 | 156 | 1.7 | 4.3 | 0.00 | 0.00 | 0.00 | 68 | 1012.7 |
| 20260507163603 | 0 | 122 | 3.5 | 5.2 | 0.00 | 0.00 | 0.00 | 69 | 1012.5 |
| 20260507163105 | 0 | 142 | 3.5 | 6.1 | 0.00 | 0.00 | 0.00 | 67 | 1012.5 |
| 20260507162605 | 0 | 183 | 1.7 | 3.5 | 0.00 | 0.00 | 0.00 | 68 | 1012.7 |
| 20260507162102 | 0 | 125 | 1.7 | 6.1 | 0.00 | 0.00 | 0.00 | 67 | 1012.6 |
| 20260507161603 | 0 | 168 | 1.7 | 5.2 | 0.00 | 0.00 | 0.00 | 68 | 1012.7 |
| 20260507161102 | 0 | 202 | 2.6 | 4.3 | 0.00 | 0.00 | 0.00 | 68 | 1012.5 |
| 20260507160603 | 0 | 180 | 1.7 | 5.2 | 0.00 | 0.00 | 0.00 | 70 | 1012.7 |
| 20260507160104 | 0 | 128 | 2.6 | 3.5 | 0.00 | 0.00 | 0.00 | 72 | 1012.7 |
| 20260507155603 | 0 | 115 | 2.6 | 6.1 | 0.00 | 0.00 | 0.00 | 74 | 1012.7 |
| 20260507155104 | 0 | 125 | 2.6 | 11.3 | 0.00 | 0.00 | 0.00 | 72 | 1012.8 |
| 20260507154603 | 0 | 116 | 5.2 | 7.8 | 0.00 | 0.00 | 0.00 | 72 | 1012.8 |
| 20260507154103 | 0 | 103 | 1.7 | 6.1 | 0.00 | 0.00 | 0.00 | 71 | 1012.7 |
| 20260507153603 | 0 | 106 | 3.5 | 8.7 | 0.00 | 0.00 | 0.00 | 70 | 1012.8 |
| 20260507153102 | 0 | 160 | 8.7 | 9.6 | 0.00 | 0.00 | 0.00 | 72 | 1012.7 |
| 20260507152606 | 0 | 184 | 7.8 | 9.6 | 0.00 | 0.00 | 0.00 | 73 | 1012.7 |
| 20260507152102 | 0 | 189 | 5.2 | 8.7 | 0.00 | 0.00 | 0.00 | 71 | 1012.7 |
| 20260507151603 | 0 | 143 | 7.8 | 7.8 | 0.00 | 0.00 | 0.00 | 70 | 1012.7 |
| 20260507151103 | 0 | 176 | 2.6 | 7.0 | 0.00 | 0.00 | 0.00 | 72 | 1012.7 |
| 20260507150603 | 0 | 173 | 5.2 | 7.0 | 0.00 | 0.00 | 0.00 | 70 | 1012.7 |
| 20260507145603 | 0 | 170 | 3.5 | 9.6 | 0.00 | 0.00 | 0.00 | 73 | 1012.7 |
| 20260507145104 | 0 | 199 | 2.6 | 5.2 | 0.00 | 0.00 | 0.00 | 72 | 1012.7 |
| 20260507144602 | 0 | 116 | 5.2 | 8.7 | 0.00 | 0.00 | 0.00 | 73 | 1012.8 |
| 20260507144103 | 0 | 116 | 7.8 | 7.8 | 0.00 | 0.00 | 0.00 | 71 | 1012.7 |
| 20260507143603 | 0 | 119 | 4.3 | 7.0 | 0.00 | 0.00 | 0.00 | 72 | 1012.8 |
| 20260507143103 | 0 | 171 | 5.2 | 7.0 | 0.00 | 0.00 | 0.00 | 72 | 1012.8 |
| 20260507142603 | 0 | 124 | 10.4 | 13.0 | 0.00 | 0.00 | 0.00 | 73 | 1013.0 |
| 20260507142102 | 0 | 107 | 5.2 | 11.3 | 0.00 | 0.00 | 0.00 | 71 | 1013.2 |
| 20260507141602 | 0 | 111 | 7.8 | 7.8 | 0.00 | 0.00 | 0.00 | 72 | 1013.2 |
| 20260507141102 | 0 | 214 | 3.5 | 9.6 | 0.00 | 0.00 | 0.00 | 72 | 1013.0 |
| 20260507140603 | 0 | 156 | 2.6 | 9.6 | 0.00 | 0.00 | 0.00 | 74 | 1013.2 |
| 20260507140103 | 0 | 133 | 4.3 | 11.3 | 0.00 | 0.00 | 0.00 | 75 | 1012.8 |
| 20260507135603 | 0 | 154 | 8.7 | 13.9 | 0.00 | 0.00 | 0.00 | 74 | 1013.1 |
| 20260507135103 | 0 | 184 | 6.1 | 10.4 | 0.00 | 0.00 | 0.00 | 73 | 1013.2 |
| 20260507134602 | 0 | 110 | 7.8 | 9.6 | 0.00 | 0.00 | 0.00 | 73 | 1013.2 |
| 20260507134103 | 0 | 180 | 6.1 | 12.2 | 0.00 | 0.00 | 0.00 | 73 | 1013.2 |
| 20260507133604 | 0 | 159 | 1.7 | 10.4 | 0.00 | 0.00 | 0.00 | 72 | 1013.1 |
| 20260507133102 | 0 | 166 | 4.3 | 7.8 | 0.00 | 0.00 | 0.00 | 74 | 1013.1 |
| 20260507132604 | 0 | 177 | 11.3 | 14.8 | 0.00 | 0.00 | 0.00 | 74 | 1013.1 |
| 20260507132103 | 0 | 169 | 7.8 | 13.0 | 0.00 | 0.00 | 0.00 | 74 | 1013.2 |
| 20260507131604 | 0 | 142 | 7.0 | 13.0 | 0.00 | 0.00 | 0.00 | 74 | 1013.2 |
| 20260507131102 | 0 | 168 | 7.0 | 12.2 | 0.00 | 0.00 | 0.00 | 74 | 1013.3 |
| 20260507130603 | 0 | 180 | 5.2 | 8.7 | 0.00 | 0.00 | 0.00 | 75 | 1013.2 |
| 20260507125602 | 0 | 192 | 3.5 | 11.3 | 0.00 | 0.00 | 0.00 | 75 | 1013.0 |
| 20260507125102 | 0 | 132 | 2.6 | 13.9 | 0.00 | 0.00 | 0.00 | 76 | 1013.5 |
| 20260507124602 | 0 | 189 | 13.9 | 17.4 | 0.00 | 0.00 | 0.00 | 74 | 1013.1 |
| 20260507124102 | 0 | 170 | 16.5 | 16.5 | 0.00 | 0.00 | 0.00 | 73 | 1013.0 |
| 20260507123603 | 0 | 172 | 6.1 | 12.2 | 0.00 | 0.00 | 0.00 | 70 | 1013.2 |
| 20260507123102 | 0 | 148 | 2.6 | 13.0 | 0.00 | 0.00 | 0.00 | 69 | 1013.2 |
| 20260507122602 | 0 | 192 | 8.7 | 12.2 | 0.00 | 0.00 | 0.00 | 66 | 1013.0 |
| 20260507122103 | 0 | 133 | 5.2 | 5.2 | 0.00 | 0.00 | 0.00 | 68 | 1012.8 |
| 20260507121603 | 0 | 180 | 3.5 | 13.0 | 0.00 | 0.00 | 0.00 | 69 | 1013.0 |
| 20260507121103 | 0 | 127 | 7.0 | 12.2 | 0.00 | 0.00 | 0.00 | 68 | 1013.0 |
| 20260507120602 | 0 | 161 | 4.3 | 9.6 | 0.00 | 0.00 | 0.00 | 67 | 1013.0 |
| 20260507115602 | 0 | 156 | 4.3 | 7.8 | 0.00 | 0.00 | 0.00 | 71 | 1013.1 |
| 20260507115102 | 0 | 93 | 3.5 | 5.2 | 0.00 | 0.00 | 0.00 | 72 | 1013.1 |
| 20260507114603 | 0 | 192 | 12.2 | 13.0 | 0.00 | 0.00 | 0.00 | 71 | 1013.3 |
| 20260507114102 | 0 | 220 | 1.7 | 15.6 | 0.00 | 0.00 | 0.00 | 72 | 1013.3 |
| 20260507113603 | 0 | 131 | 5.2 | 12.2 | 0.00 | 0.00 | 0.00 | 70 | 1013.2 |
| 20260507113103 | 0 | 90 | 2.6 | 17.4 | 0.00 | 0.00 | 0.00 | 72 | 1013.2 |
| 20260507112603 | 0 | 138 | 9.6 | 13.9 | 0.00 | 0.00 | 0.00 | 71 | 1013.5 |
| 20260507112102 | 0 | 135 | 8.7 | 13.9 | 0.00 | 0.00 | 0.00 | 71 | 1013.2 |
| 20260507111602 | 0 | 157 | 5.2 | 15.6 | 0.00 | 0.00 | 0.00 | 69 | 1013.2 |
| 20260507111102 | 0 | 181 | 4.3 | 11.3 | 0.00 | 0.00 | 0.00 | 68 | 1013.2 |
| 20260507110602 | 0 | 165 | 7.8 | 13.9 | 0.00 | 0.00 | 0.00 | 70 | 1013.2 |
| 20260507105602 | 0 | 88 | 8.7 | 13.0 | 0.00 | 0.00 | 0.00 | 68 | 1013.2 |
| 20260507105102 | 0 | 124 | 6.1 | 7.0 | 0.00 | 0.00 | 0.00 | 67 | 1013.0 |
| 20260507104603 | 0 | 159 | 4.3 | 9.6 | 0.00 | 0.00 | 0.00 | 70 | 1013.2 |
| 20260507104103 | 0 | 117 | 3.5 | 9.6 | 0.00 | 0.00 | 0.00 | 71 | 1013.5 |
| 20260507103603 | 0 | 158 | 4.3 | 13.9 | 0.00 | 0.00 | 0.00 | 71 | 1013.3 |
| 20260507103104 | 0 | 112 | 7.0 | 10.4 | 0.00 | 0.00 | 0.00 | 72 | 1013.3 |
| 20260507102603 | 0 | 90 | 4.3 | 14.8 | 0.00 | 0.00 | 0.00 | 74 | 1013.3 |
| 20260507102102 | 0 | 98 | 7.0 | 13.9 | 0.00 | 0.00 | 0.00 | 71 | 1013.6 |
| 20260507101602 | 0 | 111 | 5.2 | 11.3 | 0.00 | 0.00 | 0.00 | 70 | 1013.5 |
| 20260507101102 | 0 | 206 | 0.9 | 8.7 | 0.00 | 0.00 | 0.00 | 71 | 1013.3 |
| 20260507100603 | 0 | 161 | 6.1 | 9.6 | 0.00 | 0.00 | 0.00 | 70 | 1013.2 |
| 20260507095602 | 0 | 146 | 5.2 | 13.0 | 0.00 | 0.00 | 0.00 | 68 | 1013.5 |
| 20260507095103 | 0 | 165 | 4.3 | 13.0 | 0.00 | 0.00 | 0.00 | 68 | 1013.3 |
| 20260507094603 | 0 | 147 | 4.3 | 8.7 | 0.00 | 0.00 | 0.00 | 67 | 1013.2 |
| 20260507094103 | 0 | 108 | 0.0 | 12.2 | 0.00 | 0.00 | 0.00 | 68 | 1013.3 |
| 20260507093603 | 0 | 181 | 4.3 | 6.1 | 0.00 | 0.00 | 0.00 | 66 | 1013.2 |
| 20260507093103 | 0 | 120 | 1.7 | 7.8 | 0.00 | 0.00 | 0.00 | 67 | 1013.2 |
| 20260507092603 | 0 | 125 | 5.2 | 13.0 | 0.00 | 0.00 | 0.00 | 67 | 1013.3 |
| 20260507092102 | 0 | 163 | 2.6 | 12.2 | 0.00 | 0.00 | 0.00 | 66 | 1013.3 |
| 20260507091602 | 0 | 144 | 1.7 | 8.7 | 0.00 | 0.00 | 0.00 | 68 | 1013.3 |
| 20260507091103 | 0 | 123 | 7.0 | 9.6 | 0.00 | 0.00 | 0.00 | 66 | 1013.3 |
| 20260507090602 | 0 | 183 | 1.7 | 7.8 | 0.00 | 0.00 | 0.00 | 70 | 1013.2 |
| 20260507085603 | 0 | 152 | 10.4 | 13.0 | 0.00 | 0.00 | 0.00 | 70 | 1013.2 |
| 20260507085103 | 0 | 134 | 4.3 | 12.2 | 0.00 | 0.00 | 0.00 | 70 | 1013.2 |
| 20260507084603 | 0 | 113 | 11.3 | 14.8 | 0.00 | 0.00 | 0.00 | 69 | 1013.1 |
| 20260507084102 | 0 | 190 | 3.5 | 8.7 | 0.00 | 0.00 | 0.00 | 68 | 1013.0 |
| 20260507083603 | 0 | 115 | 5.2 | 7.8 | 0.00 | 0.00 | 0.00 | 69 | 1013.0 |
| 20260507083102 | 0 | 118 | 7.8 | 14.8 | 0.00 | 0.00 | 0.00 | 69 | 1013.0 |
| 20260507082603 | 0 | 130 | 6.1 | 11.3 | 0.00 | 0.00 | 0.00 | 69 | 1013.0 |
| 20260507082103 | 0 | 146 | 6.1 | 11.3 | 0.00 | 0.00 | 0.00 | 72 | 1013.0 |
| 20260507081602 | 0 | 125 | 3.5 | 7.8 | 0.00 | 0.00 | 0.00 | 71 | 1012.8 |
| 20260507081102 | 0 | 180 | 3.5 | 8.7 | 0.00 | 0.00 | 0.00 | 69 | 1012.7 |
| 20260507080603 | 0 | 132 | 3.5 | 3.5 | 0.00 | 0.00 | 0.00 | 72 | 1013.2 |
| 20260507075603 | 0 | 59 | 0.0 | 3.5 | 0.00 | 0.00 | 0.00 | 74 | 1012.7 |
| 20260507075102 | 0 | 0 | 0.9 | 0.9 | 0.00 | 0.00 | 0.00 | 78 | 1012.7 |
| 20260507074603 | 0 | 105 | 1.7 | 1.7 | 0.00 | 0.00 | 0.00 | 79 | 1012.8 |
| 20260507074103 | 0 | 327 | 1.7 | 1.7 | 0.00 | 0.00 | 0.00 | 79 | 1012.8 |
| 20260507073602 | 0 | 294 | 0.0 | 0.9 | 0.00 | 0.00 | 0.00 | 79 | 1012.7 |
| 20260507073102 | 0 | 297 | 0.9 | 3.5 | 0.00 | 0.00 | 0.00 | 78 | 1012.8 |
| 20260507072602 | 0 | 350 | 1.7 | 4.3 | 0.00 | 0.00 | 0.00 | 79 | 1012.8 |
| 20260507072104 | 0 | 354 | 0.9 | 3.5 | 0.00 | 0.00 | 0.00 | 78 | 1012.8 |
| 20260507071604 | 0 | 17 | 1.7 | 4.3 | 0.00 | 0.00 | 0.00 | 75 | 1012.6 |
| 20260507071103 | 0 | 358 | 1.7 | 4.3 | 0.00 | 0.00 | 0.00 | 74 | 1012.7 |
| 20260507070602 | 0 | 0 | 1.7 | 4.3 | 0.00 | 0.00 | 0.00 | 73 | 1012.8 |
| 20260507065602 | 0 | 348 | 0.9 | 4.3 | 0.00 | 0.00 | 0.00 | 74 | 1012.7 |
| 20260507065103 | 0 | 17 | 1.7 | 3.5 | 0.00 | 0.00 | 0.00 | 77 | 1012.6 |
| 20260507064602 | 0 | 337 | 3.5 | 4.3 | 0.00 | 0.00 | 0.00 | 78 | 1012.7 |
| 20260507064103 | 0 | 0 | 0.0 | 1.7 | 0.00 | 0.00 | 0.00 | 80 | 1012.6 |
| 20260507063603 | 0 | 342 | 0.9 | 1.7 | 0.00 | 0.00 | 0.00 | 80 | 1012.7 |
| 20260507063103 | 0 | 353 | 1.7 | 6.1 | 0.00 | 0.00 | 0.00 | 80 | 1012.5 |
| 20260507062602 | 0 | 357 | 3.5 | 6.1 | 0.00 | 0.00 | 0.00 | 79 | 1012.6 |
| 20260507062102 | 0 | 323 | 0.9 | 5.2 | 0.00 | 0.00 | 0.00 | 78 | 1012.5 |
| 20260507061602 | 0 | 349 | 2.6 | 5.2 | 0.00 | 0.00 | 0.00 | 77 | 1012.2 |
| 20260507061103 | 0 | 356 | 0.0 | 4.3 | 0.00 | 0.00 | 0.00 | 77 | 1012.3 |
| 20260507060602 | 0 | 96 | 0.9 | 6.1 | 0.00 | 0.00 | 0.00 | 79 | 1012.6 |
| 20260507055603 | 0 | 7 | 1.7 | 5.2 | 0.00 | 0.00 | 0.00 | 80 | 1012.5 |
| 20260507055103 | 0 | 322 | 3.5 | 5.2 | 0.00 | 0.00 | 0.00 | 81 | 1012.2 |
| 20260507054603 | 0 | 1 | 3.5 | 8.7 | 0.00 | 0.00 | 0.00 | 81 | 1012.3 |
| 20260507054102 | 0 | 294 | 3.5 | 6.1 | 0.00 | 0.00 | 0.00 | 82 | 1012.2 |
| 20260507053604 | 0 | 356 | 4.3 | 7.0 | 0.00 | 0.00 | 0.00 | 82 | 1012.3 |
| 20260507053103 | 0 | 329 | 3.5 | 7.8 | 0.00 | 0.00 | 0.00 | 82 | 1012.2 |
| 20260507052603 | 0 | 348 | 4.3 | 5.2 | 0.00 | 0.00 | 0.00 | 83 | 1012.1 |
| 20260507052103 | 0 | 337 | 1.7 | 5.2 | 0.00 | 0.00 | 0.00 | 83 | 1012.1 |
| 20260507051603 | 0 | 0 | 0.9 | 6.1 | 0.00 | 0.00 | 0.00 | 83 | 1012.2 |
| 20260507051102 | 0 | 33 | 2.6 | 7.0 | 0.00 | 0.00 | 0.00 | 83 | 1012.2 |
| 20260507050602 | 0 | 357 | 1.7 | 3.5 | 0.00 | 0.00 | 0.00 | 84 | 1011.8 |
| 20260507045603 | 0 | 0 | 0.9 | 6.1 | 0.00 | 0.00 | 0.00 | 85 | 1011.7 |
| 20260507045102 | 0 | 325 | 2.6 | 5.2 | 0.00 | 0.00 | 0.00 | 84 | 1012.1 |
| 20260507044602 | 0 | 352 | 3.5 | 5.2 | 0.00 | 0.00 | 0.00 | 84 | 1011.7 |
| 20260507044102 | 0 | 346 | 0.9 | 5.2 | 0.00 | 0.00 | 0.00 | 85 | 1011.8 |
| 20260507043602 | 0 | 299 | 1.7 | 5.2 | 0.00 | 0.00 | 0.00 | 85 | 1011.7 |
| 20260507043105 | 0 | 351 | 2.6 | 7.0 | 0.00 | 0.00 | 0.00 | 85 | 1011.7 |
| 20260507042603 | 0 | 342 | 0.9 | 3.5 | 0.00 | 0.00 | 0.00 | 85 | 1011.7 |
| 20260507042102 | 0 | 300 | 0.9 | 5.2 | 0.00 | 0.00 | 0.00 | 85 | 1011.7 |
| 20260507041604 | 0 | 331 | 1.7 | 5.2 | 0.00 | 0.00 | 0.00 | 85 | 1011.7 |
| 20260507041103 | 0 | 3 | 4.3 | 5.2 | 0.00 | 0.00 | 0.00 | 86 | 1011.8 |
| 20260507040604 | 0 | 12 | 0.9 | 3.5 | 0.00 | 0.00 | 0.00 | 86 | 1011.7 |
| 20260507035603 | 0 | 326 | 3.5 | 5.2 | 0.00 | 0.00 | 0.00 | 86 | 1011.5 |
| 20260507035102 | 0 | 324 | 3.5 | 4.3 | 0.00 | 0.00 | 0.00 | 87 | 1011.6 |
| 20260507034602 | 0 | 23 | 0.0 | 1.7 | 0.00 | 0.00 | 0.00 | 87 | 1011.6 |
| 20260507034102 | 0 | 81 | 0.9 | 3.5 | 0.00 | 0.00 | 0.00 | 87 | 1011.5 |
| 20260507033603 | 0 | 324 | 2.6 | 2.6 | 0.00 | 0.00 | 0.00 | 87 | 1011.7 |
| 20260507032602 | 0 | 315 | 1.7 | 2.6 | 0.00 | 0.00 | 0.00 | 87 | 1011.5 |
| 20260507032103 | 0 | 328 | 2.6 | 3.5 | 0.00 | 0.00 | 0.00 | 87 | 1011.5 |
| 20260507031602 | 0 | 0 | 0.9 | 0.9 | 0.00 | 0.00 | 0.00 | 87 | 1011.7 |
| 20260507031103 | 0 | 97 | 1.7 | 1.7 | 0.00 | 0.00 | 0.00 | 87 | 1011.7 |
| 20260507030603 | 0 | 0 | 1.7 | 3.5 | 0.00 | 0.00 | 0.00 | 87 | 1011.5 |
| 20260507025603 | 0 | 355 | 3.5 | 5.2 | 0.00 | 0.00 | 0.00 | 87 | 1011.3 |
| 20260507025103 | 0 | 323 | 1.7 | 2.6 | 0.00 | 0.00 | 0.00 | 87 | 1011.6 |
| 20260507024602 | 0 | 327 | 1.7 | 4.3 | 0.00 | 0.00 | 0.00 | 87 | 1011.6 |
| 20260507024102 | 0 | 0 | 0.9 | 3.5 | 0.00 | 0.00 | 0.00 | 87 | 1011.5 |
| 20260507023602 | 0 | 318 | 2.6 | 5.2 | 0.00 | 0.00 | 0.00 | 87 | 1011.7 |
| 20260507023103 | 0 | 0 | 0.9 | 1.7 | 0.00 | 0.00 | 0.00 | 87 | 1011.6 |
| 20260507022602 | 0 | 346 | 0.0 | 0.9 | 0.00 | 0.00 | 0.00 | 87 | 1011.6 |
| 20260507022103 | 0 | 330 | 0.9 | 0.9 | 0.00 | 0.00 | 0.00 | 87 | 1011.6 |
| 20260507021603 | 0 | 311 | 0.0 | 1.7 | 0.00 | 0.00 | 0.00 | 87 | 1011.6 |
| 20260507021103 | 0 | 340 | 3.5 | 3.5 | 0.00 | 0.00 | 0.00 | 87 | 1011.5 |
| 20260507020603 | 0 | 329 | 3.5 | 3.5 | 0.00 | 0.00 | 0.00 | 87 | 1011.7 |
| 20260507015602 | 0 | 352 | 0.0 | 4.3 | 0.00 | 0.00 | 0.00 | 87 | 1011.8 |
| 20260507015103 | 0 | 324 | 2.6 | 3.5 | 0.00 | 0.00 | 0.00 | 87 | 1011.5 |
| 20260507014603 | 0 | 324 | 2.6 | 3.5 | 0.00 | 0.00 | 0.00 | 87 | 1011.5 |
| 20260507014102 | 0 | 348 | 1.7 | 3.5 | 0.00 | 0.00 | 0.00 | 87 | 1011.2 |
| 20260507013602 | 0 | 351 | 3.5 | 3.5 | 0.00 | 0.00 | 0.00 | 87 | 1011.6 |
| 20260507012603 | 0 | 54 | 0.9 | 2.6 | 0.00 | 0.00 | 0.00 | 87 | 1011.7 |
| 20260507012103 | 0 | 347 | 2.6 | 2.6 | 0.00 | 0.00 | 0.00 | 87 | 1011.5 |
| 20260507011602 | 0 | 324 | 2.6 | 3.5 | 0.00 | 0.00 | 0.00 | 87 | 1011.7 |
| 20260507011103 | 0 | 321 | 1.7 | 1.7 | 0.00 | 0.00 | 0.00 | 87 | 1011.6 |
| 20260507010603 | 0 | 304 | 1.7 | 1.7 | 0.00 | 0.00 | 0.00 | 86 | 1011.7 |
| 20260507005602 | 0 | 0 | 1.7 | 4.3 | 0.00 | 0.00 | 0.00 | 87 | 1011.7 |
| 20260507005102 | 0 | 285 | 2.6 | 3.5 | 0.00 | 0.00 | 0.00 | 87 | 1011.7 |
| 20260507004603 | 0 | 300 | 0.9 | 1.7 | 0.00 | 0.00 | 0.00 | 87 | 1012.0 |
| 20260507004104 | 0 | 334 | 0.9 | 2.6 | 0.00 | 0.00 | 0.00 | 87 | 1011.7 |
| 20260507003602 | 0 | 29 | 0.9 | 3.5 | 0.00 | 0.00 | 0.00 | 86 | 1011.5 |
| 20260507003102 | 0 | 352 | 0.9 | 2.6 | 0.00 | 0.00 | 0.00 | 86 | 1011.5 |
| 20260507002603 | 0 | 331 | 2.6 | 4.3 | 0.00 | 0.00 | 0.00 | 86 | 1011.6 |
| 20260507002103 | 0 | 343 | 3.5 | 4.3 | 0.00 | 0.00 | 0.00 | 86 | 1011.6 |
| 20260507001602 | 0 | 0 | 1.7 | 3.5 | 0.00 | 0.00 | 0.00 | 86 | 1011.6 |
| 20260507001102 | 0 | 323 | 2.6 | 3.5 | 0.00 | 0.00 | 0.00 | 86 | 1011.7 |
| 20260507000602 | 0 | 339 | 1.7 | 3.5 | 0.00 | 0.00 | 0.00 | 86 | 1011.5 |
| 20260506235602 | 0 | 15 | 3.5 | 4.3 | 0.00 | 0.00 | 0.00 | 87 | 1011.8 |
| 20260506235102 | 0 | 354 | 2.6 | 5.2 | 0.00 | 0.00 | 0.00 | 87 | 1011.7 |
| 20260506234603 | 0 | 301 | 1.7 | 4.3 | 0.00 | 0.00 | 0.00 | 87 | 1011.7 |
| 20260506234102 | 0 | 353 | 0.9 | 3.5 | 0.00 | 0.00 | 0.00 | 87 | 1011.6 |
| 20260506233602 | 0 | 0 | 3.5 | 6.1 | 0.00 | 0.00 | 0.00 | 87 | 1011.7 |
| 20260506233103 | 0 | 324 | 0.9 | 2.6 | 0.00 | 0.00 | 0.00 | 87 | 1011.8 |
| 20260506232603 | 0 | 261 | 0.0 | 0.9 | 0.00 | 0.00 | 0.00 | 87 | 1012.0 |
| 20260506232102 | 0 | 252 | 1.7 | 1.7 | 0.00 | 0.00 | 0.00 | 87 | 1011.8 |
| 20260506231603 | 0 | 319 | 0.0 | 1.7 | 0.00 | 0.00 | 0.00 | 87 | 1012.1 |
| 20260506231103 | 0 | 333 | 1.7 | 5.2 | 0.00 | 0.00 | 0.00 | 87 | 1011.8 |
| 20260506230603 | 0 | 26 | 1.7 | 5.2 | 0.00 | 0.00 | 0.00 | 87 | 1011.7 |
| 20260506225603 | 0 | 323 | 2.6 | 2.6 | 0.00 | 0.00 | 0.00 | 87 | 1011.7 |
| 20260506225103 | 0 | 355 | 0.9 | 3.5 | 0.00 | 0.00 | 0.00 | 86 | 1011.7 |
| 20260506224602 | 0 | 334 | 0.9 | 2.6 | 0.00 | 0.00 | 0.00 | 86 | 1011.6 |